Location: Albany
(35.0170°S, 117.8920°E)
Time: 02:06:10
(UTC+08:00)

Explorer 7 - Pass Details

Date: 22 January 2021
Orbit: 484 x 677 km, 50.3° (Epoch: 01 March)

Event Time Altitude Azimuth Distance (km) Brightness Sun altitude
Rises 23:02:31 0° 225° (SW) 2,847 11.4 -32.4°
Reaches altitude 10° 23:05:00 10° 218° (SW) 1,906 10.3 -32.6°
Enters shadow 23:06:52 22° 204° (SSW) 1,254 9.2 -32.8°
Maximum altitude 23:09:06 40° 147° (SSE) 823 - -32.9°
Drops below altitude 10° 23:12:56 10° 76° (ENE) 1,780 - -33.2°
Sets 23:15:11 0° 68° (ENE) 2,635 - -33.3°
